STARLINK-30455, 57942

Orbit data source: Space-Track

STARLINK-30455, 57942 is a payload satellite owned by SpaceX/Seattle (US) in LEO that was launched on Mon, 25 Sep 2023 UTC via an FALCON 9 launch vehicle from the Air Force Western Test Range (AFWTR). Payload-class satellites include a variety of spacecraft equipped with specific instruments for various scientific and technological missions. These include communications satellites like Starlink; space stations such as the ISS; scientific satellites like the Hubble; Earth observation satellites from companies like Planet Labs, Umbra, and HawkEye 360; GPS; miniature CubeSats for education and research; and military/defense satellites.

Loading next visibility...
Identifier
57942, 2023-148H
Orbit
LEO
Country
Flag of USUS
Related business
Manufacturer
SpaceX/Seattle
Mission
Operational Commercial Communications
Bus & Motor
STARLINK V2M, Unknown motor
Mass
730 kg wet, ~700 kg dry
Launch date (UTC)
2023-09-25 (3 years ago)
Launch vehicle
FALCON 9
Launch site
Air Force Western Test Range (AFWTR)
Object type
Payload
Rocket body
Debris
Shape & HBR
Box + 2 Pan, 17.7 m
Radar Cross Section
33.884 m², Large (>1 m²)

Expand to show TLE details & history
Last TLE update: 3 days ago

TLE from 3 days ago
0 STARLINK-30455
1 57942U 23148H   26170.55426782 -.00000068  00000-0  98375-5 0  9992
2 57942  53.1600 271.3327 0001021  76.9194 283.1920 15.30199191154014
Epoch: 2026-06-19T13:18Z
TLE epoch observation values (Epoch: 2026-06-19T13:18:08.739Z)
Latitude
-0.00008°
Longitude
164.01465°
Altitude
475.958 km
Speed
7.629 km/s
True Right ascension
18h 05m 19s
True Declination
0° 00' 00"
Sunlit
Object was in full shadow at epoch
Visualization orbit readout
Latitude
Unknown
Longitude
Unknown
Altitude
Unknown
Speed
Unknown
Apparent Right ascension
Unknown
Apparent Declination
Unknown
Sunlit
N/A
Visualization observer readout
Local Sidereal Time
21:32:11
Azimuth
Unknown
Elevation
Unknown
Doppler factor
Unknown
Orbital elements
Apogee altitude
476.174 km
Perigee altitude
474.774 km
Semi-major axis
6,853.611 km
Eccentricity
0.0001
Inclination
53.16°
RAAN
271.3327°
Arg. of periapsis
76.9194°
True anomaly
283.18061°
Mean anomaly
283.192°
Eccentric anomaly
283.1863°
Mean motion
3.82529 °/min
Orbital period
94.11 mins
BSTAR
0.0000098375
Loading maneuver chart data...
Computing Atmospheric mass density...
Loading historical data...
Loading historical data...
Loading historical data...
Loading historical data...
Loading historical data...
Loading historical data...
Loading historical data...

Documentation

Showing up to 5 results
|